Home > Weather > Balrampur > Past weeks

Flag for India Weather for the Past 2 Weeks in Balrampur, Uttar Pradesh, India

Now
55 °F

Fog.


Feels Like: 55 °F
Forecast: 52 / 87 °F
Wind: No wind

Location: Lucknow / Amausi

Current Time: Feb 13, 2016 at 9:06:52 AM

Latest Report: Feb 13, 2016 at 8:00 AM


Visibility: 1 mi

Pressure: 29.95 "Hg

Humidity: 88%

Dew point: 52 °F

Location of BalrampurLocation

Historic Weather in Balrampur — Graph

°F

Balrampur Temperature Yesterday

Maximum temperature yesterday: 81 °F (at 1:00 PM)
Minimum temperature yesterday: 52 °F (at 6:00 AM)
Average temperature yesterday: 69 °F

High & Low Weather Summary for the Past Weeks

 TemperatureHumidityPressure
High82 °F (Jan 31, 2:00 PM)100% (Jan 29, 7:30 AM)30.09 "Hg (Jan 29, 7:30 AM)
Low45 °F (Feb 4, 6:00 AM)26% (Feb 11, 3:30 PM)29.80 "Hg (Feb 11, 3:30 PM)
Average65 °F63%29.95 "Hg
* Reported Jan 29 7:30 AM — Feb 13 7:30 AM, Balrampur, Weather by CustomWeather, © 2016

Note: Actual official high and low records may vary slightly from our data, if they occured in-between our weather recording intervals... More about our weather records

Advertising

Balrampur Weather History for the Previous 24 Hours

 ConditionsComfort  
Time TempWeatherWind HumidityBarometerVisibility
7:30 AM
Sat, Feb 13
50 °FFog.No wind88%29.92 "Hg1 mi
7:00 AM52 °FFog.No wind82%29.92 "Hg1 mi
6:00 AM52 °FFog.No wind82%29.89 "Hg1 mi
5:00 AM54 °FFog.No wind77%29.86 "Hg1 mi
4:00 AM54 °FFog.No wind77%29.86 "Hg1 mi
3:00 AM55 °FHaze.No wind72%29.86 "Hg1 mi
2:00 AM55 °FHaze.No wind72%29.89 "Hg1 mi
1:00 AM57 °FHaze.No wind67%29.89 "Hg1 mi
12:00 AM61 °FHaze.No wind59%29.89 "Hg1 mi
11:00 PM
Fri, Feb 12
61 °FHaze.No wind59%29.89 "Hg1 mi
10:00 PM64 °FHaze.No wind49%29.89 "Hg1 mi
9:00 PM68 °FHaze.2 mph49%29.86 "Hg1 mi
8:30 PM68 °FHaze.2 mph49%29.86 "Hg1 mi
8:00 PM66 °FHaze.No wind56%29.86 "Hg1 mi
7:30 PM68 °FHaze.No wind56%29.86 "Hg1 mi
7:00 PM73 °FHaze.2 mph47%29.86 "Hg2 mi
6:30 PM73 °FHaze.2 mph47%29.83 "Hg2 mi
6:00 PM75 °FHaze.3 mph44%29.83 "Hg2 mi
5:30 PM79 °FHaze.3 mph34%29.83 "Hg2 mi
5:00 PM79 °FHaze.5 mph34%29.83 "Hg2 mi
4:30 PM79 °FHaze.6 mph34%29.83 "Hg2 mi
4:00 PM81 °FHaze.6 mph30%29.83 "Hg2 mi
3:30 PM81 °FHaze.6 mph30%29.83 "Hg2 mi
3:00 PM81 °FHaze.8 mph28%29.83 "Hg2 mi
2:30 PM81 °FHaze.9 mph26%29.86 "Hg2 mi
2:00 PM81 °FHaze.7 mph28%29.86 "Hg2 mi
1:30 PM81 °FHaze.7 mph28%29.86 "Hg2 mi
1:00 PM81 °FHaze.6 mph28%29.89 "Hg2 mi
12:30 PM79 °FHaze.6 mph30%29.89 "Hg2 mi
12:00 PM77 °FHaze.5 mph34%29.92 "Hg2 mi
11:30 AM75 °FHaze.3 mph41%29.92 "Hg2 mi
11:00 AM75 °FHaze.2 mph44%29.95 "Hg2 mi
10:30 AM72 °FHaze.2 mph50%29.95 "Hg2 mi
10:00 AM70 °FHaze.2 mph53%29.95 "Hg1 mi
9:30 AM66 °FHaze.No wind56%29.95 "Hg1 mi
9:00 AM63 °FFog.No wind68%29.92 "Hg1 mi
Weather by CustomWeather, © 2016

See weather overviewHow to use our weather pages